Погода в Фоминском

Россия / Архангельская область     61°15′57″N   48°40′20″E
темп.,
°C
ветер,
м/с
пор.,
м/с
влажн.,
%
обл.,
%
осадки,
мм/ч
давл.,
гПа
погр.,
м
21 января, пт
пт2100:00−7ююз41293100 0.1 1003454
03:00−7ю41293100 0.1 1005478
06:00−7ю41293100 0.0 1005496
09:00−8ю41292100 0.1 1007501
12:00−7ю41292100 0.0 1008554
15:00−9ю41192100 0.1 1010461
18:00−10ю41292100 0.0 1012426
21:00−11ю41291100 0.0 1014364
22 января, сб
сб2200:00−12ююв31192100 0.0 1016314
03:00−13ююв3129299 0.0 1017260
06:00−14юв31191100 0.0 1018230
09:00−14юв31192100 0.0 1020237
12:00−10ююв3119263 0.0 1021370
15:00−10юв379495 0.0 1023179
18:00−12юв289698 0.0 1024174
21:00−12юв2597100 0.0 1026102
23 января, вс
вс2300:00−15вюв249863 0.0 102751
03:00−14вюв2598100 0.0 102881
06:00−14вюв249864 0.0 102972
09:00−17юв249987 0.1 103160
12:00−11юв249564 0.0 1031139
15:00−10в119790 0.3 103117
18:00−11юв119894 0.4 103317
21:00−13ю259992 0.4 103463
24 января, пн
пн2400:00−17ююз24100100 0.0 103643
03:00−19ююз24100100 0.1 103657
06:00−17юз279893 0.1 1036133
09:00−14ююз289775 0.1 1036182
12:00−10юз3994100 0.2 1035301
15:00−11юз3995100 0.3 1035321
18:00−13ююз3109675 0.0 1034239
21:00−15ююз3109779 0.0 1033217
25 января, вт
вт2500:00−14юз31196100 0.0 1032249
03:00−14юз4139683 0.0 1031295
06:00−14ююз3129690 0.0 1030265
09:00−15ююз31298100 0.0 1029239
12:00−10ю399580 0.0 1028289
15:00−10ю39925 0.0 1027287
18:00−13ю31094100 0.0 1027225
21:00−14ююз3109575 0.0 1027214